Regional Weather Roundup
Issued by NWS Sterling, VA

Home | Current Version | Previous Version | Text Only | Print | Product List | Glossary Off
Versions: 1 2 3 4 5 6 7 8 9 10 11 12 13 14 15 16 17 18 19 20 21 22 23 24 25 26 27 28 29 30 31 32 33 34 35 36 37 38 39 40 41 42 43 44 45 46 47 48 49 50

000
ASUS41 KLWX 312210
RWRLWX

REGIONAL WEATHER ROUNDUP
NATIONAL WEATHER SERVICE BALTIMORE MD/WASHINGTON DC
600 PM EDT MON AUG 31 2015

Note: "FAIR" indicates few or no clouds below 12,000 feet
with no significant weather and/or obstructions to visibility.
 TC=TEMPERATURE CELSIUS

 * =Non NWS site. Station does not report precipitation (e.g. rain,
    snow, etc.), thunder, or fog.

DCZ001-MDZ009-015-VAZ040>042-051-053>054-312300-
WASHINGTON METRO

CITY           SKY/WX    TMP DP  RH WIND       PRES   REMARKS
WASHINGTON NAT MOSUNNY   85  66  53 S10       30.04S
DULLES         MOSUNNY   87  65  47 SW7       30.04S
ANDREWS AFB    SUNNY     87  60  40 SW6       30.04S
FT BELVOIR     SUNNY     86  66  50 SE5       30.04S
QUANTICO       MOSUNNY   84  69  60 S6        30.05S
COLLEGE PARK*  SUNNY     88  61  40 CALM      30.03S
LEESBURG*      SUNNY     88  72  58 S9        30.05S HX  94
MANASSAS*      SUNNY     84  66  54 SE5       30.04F
GAITHERSBURG*  MOSUNNY   84  66  54 SW6       30.08F

$$

MDZ006>007-011-014-312300-
BALTIMORE METRO

CITY           SKY/WX    TMP DP  RH WIND       PRES   REMARKS
BWI AIRPORT    MOSUNNY   87  63  44 SW6       30.02S
MD SCIENCE CTR   N/A     87  65  47 MISG      30.02S
MARTIN STATE   PTSUNNY   84  72  65 SE6       30.03F
ANNAPOLIS      SUNNY     85  65  51 SW7       30.03S
FORT MEADE*    MOSUNNY   81  68  65 SW3       30.05F

$$

MDZ012-015-019>023-312300-
MARYLAND EASTERN SHORE

CITY           SKY/WX    TMP DP  RH WIND       PRES   REMARKS
OCEAN CITY     MOSUNNY   83  68  60 SW13      30.05S
SALISBURY      SUNNY     83  66  56 SW10      30.05S
BAY BRIDGE AP*   N/A     82  63  51 S5        30.04S
CAMBRIDGE*     SUNNY     84  66  54 SW6       30.04S
EASTON*        MOSUNNY   84  64  51 W6        30.08S

$$

MDZ017>025-312300-
SOUTHERN MARYLAND

CITY           SKY/WX    TMP DP  RH WIND       PRES   REMARKS
PATUXENT RIVER MOSUNNY   83  66  56 S8        30.04F
ST INIGOES     SUNNY     83  70  64 SE7       30.04F
LEONARDTOWN*   NOT AVBL

$$

MDZ003>005-312300-
NORTH CENTRAL MARYLAND

CITY           SKY/WX    TMP DP  RH WIND       PRES   REMARKS
FREDERICK*     MOSUNNY   84  70  61 S8        30.06S
HAGERSTOWN APT MOSUNNY   87  57  35 SW8       30.04S
WESTMINSTER*   MOSUNNY   84  68  58 SW6       30.05S

$$

MDZ501>502-312300-
WESTERN MARYLAND

CITY           SKY/WX    TMP DP  RH WIND       PRES   REMARKS
OAKLAND*       MOSUNNY   73  61  64 CALM      30.18S
CUMBERLAND*    MOSUNNY   82  66  57 CALM      30.09S

$$

VAZ025>031-312300-
SHENANDOAH VALLEY

CITY           SKY/WX    TMP DP  RH WIND       PRES   REMARKS
WINCHESTER*    CLOUDY    86  61  42 SE6       30.05S
FRONT ROYAL*   FAIR      84  68  58 E5        30.04S
LURAY*         FAIR      88  61  40 E3        30.05S
NEW MARKET*    FAIR      86  63  45 W3        30.03F
STAUNTON*      CLOUDY    86  60  41 CALM      30.10R
WAYNESBORO*    MOCLDY    85  59  41 SE3       30.10S

$$

WVZ021-048>050-054>055-312300-
EASTERN WEST VIRGINIA PANHANDLE

CITY           SKY/WX    TMP DP  RH WIND       PRES   REMARKS
MARTINSBURG    CLOUDY    85  65  51 SE5       30.05R
PETERSBURG*    CLOUDY    79  71  78 CALM      30.07S

$$

VAZ036>039-050-312300-
CENTRAL FOOTHILLS

CITY           SKY/WX    TMP DP  RH WIND       PRES   REMARKS
CHARLOTTESVILL SUNNY     87  57  35 S3        30.05F
CULPEPER*      SUNNY     85  66  52 CALM      30.05S
ORANGE*        SUNNY     88  61  40 SE3       30.06S
GORDONSVILLE*  FAIR      86  63  45 CALM      30.04F
WARRENTON*     FAIR      89  64  43 CALM      30.04S HX  90

$$

VAZ055>057-312300-
NORTH AND CENTRAL PIEDMONT

CITY           SKY/WX    TMP DP  RH WIND       PRES   REMARKS
FREDERICKSBRG* SUNNY     89  65  44 S6        30.03S HX  91
STAFFORD*      SUNNY     86  60  40 CALM      30.08S

$$

NCZ024-NYZ072-PAZ021-071-VAZ022-071-312300-
OTHER REGIONAL OBSERVATIONS

CITY           SKY/WX    TMP DP  RH WIND       PRES   REMARKS
NEW YORK CITY  MOSUNNY   89  63  41 VRB3      29.98R HX  90
PHILADELPHIA   PTSUNNY   88  69  53 SW14      30.00S HX  92
PITTSBURGH     MOSUNNY   87  62  43 NW6       30.05F
ROANOKE        PTSUNNY   83  61  47 E8        30.10R
RICHMOND       PTSUNNY   80  70  71 S10       30.07S
RALEIGH        PTSUNNY   77  70  79 CALM      30.07F

$$

ANZ530>537-312300-
MARINE OBSERVATIONS

STATION/POSITION TIME  TEMP    WIND        PRES
                       AIR SEA DIR/SP/G
                 (UTC) (F)     (DEG/KT/KT) (MB)
THOMAS PT LIGHT  2100   80 79  180/ 10/ 11 1017.6
BALT KEY BRIDGE  2100   85     200/  8/ 10 1016.5F
COVE POINT       2100   80     170/  7/  8 1018.2F
LEWISETTA        2100   83 80  240/  5/  7 1017.4F
SOLOMONS ISLAND  2100      80                N/A
PINEY POINT      2105          160/  2/  4   N/A

$$



USA.gov is the U.S. government's official web portal to all federal, state and local government web resources and services.